Date,TemperatureHighF,TemperatureAvgF,TemperatureLowF,DewpointHighF,DewpointAvgF,DewpointLowF,HumidityHigh,HumidityAvg,HumidityLow,PressureMaxIn,PressureMinIn,WindSpeedMaxMPH,WindSpeedAvgMPH,GustSpeedMaxMPH,PrecipitationSumIn
2013-11-1,66.0,59.6,49.3,-99.9,-99.9,-99.9,0,0,100,28.52,28.20,0,-999,0,0.00
2013-11-2,62.8,48.1,36.2,-99.9,-99.9,-99.9,0,0,100,28.59,28.40,0,-999,0,0.00
2013-11-3,51.7,37.3,25.9,-99.9,-99.9,-99.9,0,0,100,29.23,28.59,0,-999,0,0.00
2013-11-4,50.0,31.6,21.2,-99.9,-99.9,-99.9,0,0,100,29.45,29.20,0,-999,0,0.00
2013-11-5,55.0,38.4,25.9,-99.9,-99.9,-99.9,0,0,100,29.42,29.20,0,-999,0,0.00
2013-11-6,61.0,48.5,37.4,-99.9,-99.9,-99.9,0,0,100,29.23,28.75,0,-999,0,0.00
2013-11-7,134.2,47.7,36.1,-99.9,-99.9,-99.9,0,0,100,28.75,28.56,0,-999,0,0.00
2013-11-8,46.4,35.0,29.0,-99.9,-99.9,-99.9,0,0,100,28.91,28.62,0,-999,0,0.00
2013-11-9,43.5,34.7,24.1,-99.9,-99.9,-99.9,0,0,100,29.00,28.68,0,-999,0,0.00
2013-11-10,48.0,40.7,34.0,-99.9,-99.9,-99.9,0,0,100,28.72,28.52,0,-999,0,0.00
2013-11-11,50.9,41.6,34.6,-99.9,-99.9,-99.9,0,0,100,28.94,28.65,0,-999,0,0.00
2013-11-12,42.6,30.7,22.4,-99.9,-99.9,-99.9,0,0,100,29.00,28.65,0,-999,0,0.00
2013-11-13,39.5,27.2,18.9,-99.9,-99.9,-99.9,0,0,100,29.10,28.91,0,-999,0,0.00
2013-11-14,51.1,32.6,22.5,-99.9,-99.9,-99.9,0,0,100,28.91,28.81,0,-999,0,0.00
2013-11-15,147.5,38.9,23.8,-99.9,-99.9,-99.9,0,0,100,28.97,28.84,0,-999,0,0.00
2013-11-16,170.6,33.6,34.4,-99.9,-99.9,-99.9,0,0,100,29.07,28.84,0,-999,0,0.00
2013-11-17,56.7,48.5,34.4,-99.9,-99.9,-99.9,0,0,100,28.97,28.75,0,-999,0,0.00
2013-11-18,149.9,53.7,42.2,-99.9,-99.9,-99.9,0,0,100,28.75,28.33,0,-999,0,0.00
2013-11-19,146.2,35.9,27.9,-99.9,-99.9,-99.9,0,0,100,29.13,28.52,0,-999,0,0.00
2013-11-20,129.1,30.7,21.0,-99.9,-99.9,-99.9,0,0,100,29.39,29.13,0,-999,0,0.00
2013-11-21,149.3,37.3,18.7,-99.9,-99.9,-99.9,0,0,100,29.39,29.16,0,-999,0,0.00
2013-11-22,147.9,41.8,36.8,-99.9,-99.9,-99.9,0,0,100,29.20,28.65,0,-999,0,0.00
2013-11-23,146.2,36.8,25.2,-99.9,-99.9,-99.9,0,0,100,28.81,28.59,0,-999,0,0.00
2013-11-24,144.8,28.8,17.3,-99.9,-99.9,-99.9,0,0,100,29.04,28.65,0,-999,0,0.00
2013-11-25,145.2,29.1,12.5,-99.9,-99.9,-99.9,0,0,100,29.20,28.97,0,-999,0,0.00
2013-11-26,146.6,38.3,28.0,-99.9,-99.9,-99.9,0,0,100,29.07,28.68,0,-999,0,0.00
2013-11-27,148.9,43.1,31.4,-99.9,-99.9,-99.9,0,0,100,28.72,28.17,0,-999,0,0.00
2013-11-28,32.7,21.3,-19.5,-99.9,-99.9,-99.9,0,0,100,29.20,28.36,0,-999,0,0.00
2013-11-29,38.5,23.9,16.1,-99.9,-99.9,-99.9,0,0,100,29.49,29.16,0,-999,0,0.00
2013-11-30,37.1,24.2,12.2,-99.9,-99.9,-99.9,0,0,100,29.52,29.10,0,-999,0,0.00